EDT,Max TemperatureF,Mean TemperatureF,Min TemperatureF,Max Dew PointF,MeanDew PointF,Min DewpointF,Max Humidity, Mean Humidity, Min Humidity, Max Sea Level PressureIn, Mean Sea Level PressureIn, Min Sea Level PressureIn, Max VisibilityMiles, Mean VisibilityMiles, Min VisibilityMiles, Max Wind SpeedMPH, Mean Wind SpeedMPH, Max Gust SpeedMPH,PrecipitationIn, CloudCover, Events, WindDirDegrees
2013-4-1,41,32,24,40,26,15,93,78,41,29.96,29.81,29.62,10,8,1,25,11,32,0.02,7,Rain-Snow,289
2013-4-2,34,28,21,18,14,9,74,57,37,30.12,30.02,29.91,10,10,10,21,14,30,0.00,5,Snow,285
2013-4-3,34,29,24,19,15,12,80,59,40,30.39,30.21,30.07,10,10,6,23,15,26,0.00,5,Snow,297
2013-4-4,52,34,17,18,16,12,93,50,22,30.38,30.21,29.98,10,10,10,14,5,22,0.00,0,,201
2013-4-5,46,36,26,26,19,12,66,50,35,30.13,29.97,29.89,10,10,10,22,8,28,0.00,3,,311
2013-4-6,46,34,22,19,13,2,88,48,17,30.35,30.25,30.14,10,10,10,14,8,23,0.00,1,,327
2013-4-7,64,53,41,41,26,13,70,39,29,30.14,29.96,29.82,10,10,10,22,16,33,0.00,5,Rain,173
2013-4-8,64,50,37,44,34,32,82,58,31,30.14,30.03,29.86,10,10,10,14,4,,0.00,5,Rain,129
2013-4-9,64,54,45,48,42,38,93,63,38,30.11,29.98,29.85,10,10,5,23,9,29,0.11,5,Rain-Thunderstorm,325
2013-4-10,50,44,39,49,45,39,100,97,93,30.02,29.95,29.85,7,1,0,14,6,30,0.48,8,Fog-Rain-Thunderstorm,313
2013-4-11,39,37,35,40,36,31,100,92,74,30.10,30.00,29.94,10,5,0,15,7,21,0.02,8,Fog-Rain,349
2013-4-12,45,40,36,44,38,34,97,90,82,29.95,29.76,29.65,10,8,3,24,12,31,0.28,8,Rain,141
2013-4-13,47,40,34,36,34,29,100,79,54,29.97,29.87,29.81,10,10,6,16,4,17,0.02,8,Rain,248
2013-4-14,45,38,32,35,29,26,93,71,48,30.22,30.11,29.99,10,10,5,13,7,,0.00,5,Rain-Snow,297
2013-4-15,68,50,34,42,35,26,76,56,40,30.25,30.19,30.14,10,10,10,17,9,24,0.00,3,,154
2013-4-16,61,56,46,55,48,41,94,81,64,30.22,30.14,30.04,10,9,2,20,12,29,0.21,8,Rain,204
2013-4-17,55,46,36,36,33,30,93,66,43,30.35,30.30,30.23,10,10,10,14,7,17,0.00,2,,330
2013-4-18,64,50,37,52,41,32,82,60,38,30.27,30.08,29.90,10,10,10,29,14,38,0.00,5,,171
2013-4-19,72,56,41,59,50,36,93,77,57,29.88,29.71,29.45,10,10,3,29,15,41,0.39,7,Rain,204
2013-4-20,45,36,28,37,28,19,93,70,44,30.42,30.04,29.76,10,9,2,24,9,32,0.00,7,Rain-Snow,293
2013-4-21,43,34,26,28,23,19,93,69,44,30.67,30.59,30.41,10,10,10,16,7,20,0.00,3,,321
2013-4-22,56,42,28,27,22,19,96,46,25,30.64,30.54,30.43,10,10,10,17,8,18,0.00,0,,141
2013-4-23,57,45,33,40,30,21,77,54,35,30.43,30.27,30.07,10,10,10,15,10,21,0.00,1,,150
2013-4-24,66,54,39,54,43,33,87,72,50,30.05,29.89,29.71,10,10,6,21,12,33,0.15,5,Rain,180
2013-4-25,56,44,33,33,29,22,82,57,26,30.32,30.19,30.04,10,10,10,23,11,29,0.00,4,,306
2013-4-26,52,42,33,37,32,26,100,74,38,30.49,30.43,30.32,10,8,0,10,4,16,0.01,3,Fog-Rain,335
2013-4-27,65,48,32,39,30,20,93,54,20,30.47,30.38,30.27,10,10,10,8,3,,0.00,1,,72
2013-4-28,70,56,43,46,35,32,89,49,27,30.27,30.19,30.10,10,10,10,23,8,32,0.03,2,Rain,144
2013-4-29,55,52,50,49,45,36,88,74,58,30.15,30.10,30.07,10,10,10,17,12,24,0.00,7,Rain,152
2013-4-30,63,58,52,50,48,45,86,75,58,30.29,30.21,30.14,10,10,10,15,10,18,0.00,6,,154